sat.trackr.live / text

‹ back to catalog

STRIX-2

NORAD 62406 · 2024-248A

PAYLOAD ACTIVE UNKNOWN

§ Identity

Operator
Country
JPN
Launch date
2024-12-21
Launch site
RLLB
Launch vehicle
Mass (kg)
RCS (m²)

External: N2YO · Heavens-Above · Gunter

§ Orbital elements

Epoch: 2026-09-22T23:45:42.987168Z

Period
95.38 min
Inclination
97.6383°
Eccentricity
0.0015699
Mean motion
15.09806920 rev/d
Perigee alt
525.9 km
Apogee alt
547.6 km
Semi-major
6,914.9 km
B*
2.3308e-4
RAAN
221.1717°
Arg perigee
7.7123°
Mean anomaly
352.4344°
Rev number
9,634

§ Raw data

STRIX-21 62406U 24248A   26265.99008087  .00003712  00000+0  23308-3 0  99912 62406  97.6383 221.1717 0015699   7.7123 352.4344 15.09806920 96344

JSON: /api/v1/satellites/62406 · /tle

For live sub-satellite position, see the globe view (requires WebGL).

§ Visibility from observer

Set your observer location to see the next 7 days of passes ≥ 10°. The values pass through the URL so the page stays shareable.

No JS? Fill the form by hand. The geolocation button needs JavaScript.

§ Radio — SatNOGS DB

ModeDescriptionDownlinkUplink
FM S-band telemetry 2.277 GHz

1 transmitter · refreshed weekly from db.satnogs.org